Tracking 17636 objects as of 29-April-2016
HD Live streaming from Space Station
objects crossing your sky now

COSMOS 2375 (GLONASS)

Track COSMOS 2375 (GLONASS) now!
COSMOS 2375 (GLONASS) is classified as:


NORAD ID: 26564
Int'l Code: 2000-063A
Perigee: 19,120.4 km
Apogee: 19,153.6 km
Inclination: 65.0 °
Period: 675.7 minutes
Semi major axis: 25508 km
RCS: 3.9905 m2 (large)
Launch date: October 13, 2000
Source: Commonwealth of Independent States (former USSR) (CIS)
Launch site: TYURATAM MISSILE AND SPACE COMPLEX (TTMTR)
SV:

Russia's version of the GPS system, functions the same; there has been cooperation between the two; much scaled-back constellation
Your satellite tracking list
Your tracking list is empty





NASA's NSSDC Master Catalog

Two Line Element Set (TLE):
1 26564U 00063A   16118.34645132 +.00000030 +00000-0 +00000-0 0  9990
2 26564 064.9954 079.1009 0006506 043.8412 316.1929 02.13101864120872
Source of the keplerian elements: AFSPC

N2YO: 322